FW5697 Weather Reports


time (UTC)temp
F
wind
direction
speed
knots
gust
knots
rain 1hr
in
rain 24hr
in
rain mn
in
humidity
%
barometer
mb
20260510141531 68 0 0.9 3.5 0.00 0.00 0.00 86 1017.3
20260510140029 67 0 0.0 3.5 0.00 0.00 0.00 89 1017.1
20260510134530 65 49 0.0 1.7 0.00 0.00 0.00 91 1017.1
20260510133027 64 306 0.0 1.7 0.00 0.00 0.00 94 1017.1
20260510131528 63 0 0.0 1.7 0.00 0.00 0.00 96 1017.0
20260510130028 63 0 0.0 2.6 0.00 0.00 0.00 97 1017.0
20260510124530 62 0 0.0 0.0 0.00 0.00 0.00 98 1017.0
20260510123027 61 0 0.0 0.0 0.00 0.00 0.00 98 1016.6
20260510121530 60 0 0.0 0.0 0.00 0.00 0.00 98 1016.5
20260510120027 59 0 0.0 0.9 0.00 0.00 0.00 98 1016.2
20260510114527 58 0 0.0 0.0 0.00 0.00 0.00 97 1015.9
20260510113036 57 0 0.0 0.0 0.00 0.00 0.00 97 1015.7
20260510111530 57 0 0.0 0.0 0.00 0.00 0.00 96 1015.5
20260510110042 57 0 0.0 0.0 0.00 0.00 0.00 96 1015.3
20260510104528 57 0 0.0 0.0 0.00 0.00 0.00 96 1014.9
20260510103027 58 0 0.0 0.0 0.00 0.00 0.00 96 1014.7
20260510101527 58 0 0.0 0.0 0.00 0.00 0.00 96 1014.7
20260510100039 59 0 0.0 0.0 0.00 0.00 0.00 96 1014.4
20260510094537 59 0 0.0 0.0 0.00 0.00 0.00 96 1014.3
20260510093036 59 0 0.0 0.0 0.00 0.00 0.00 96 1014.3
20260510091530 59 0 0.0 0.0 0.00 0.00 0.00 96 1014.3
20260510090030 60 0 0.0 0.0 0.00 0.00 0.00 96 1014.0
20260510084532 60 0 0.0 0.0 0.00 0.00 0.00 96 1013.8
20260510083030 60 0 0.0 0.0 0.00 0.00 0.00 96 1013.8
20260510081539 60 0 0.0 0.0 0.00 0.00 0.00 96 1013.7
20260510080047 60 0 0.0 0.0 0.00 0.00 0.00 96 1013.6
20260510074528 61 0 0.0 0.0 0.00 0.00 0.00 96 1013.7
20260510073039 61 0 0.0 0.0 0.00 0.00 0.00 95 1013.5
20260510071528 61 0 0.0 0.0 0.00 0.00 0.00 95 1013.5
20260510070042 61 0 0.0 0.0 0.00 0.00 0.00 95 1013.5
20260510064530 61 0 0.0 0.0 0.00 0.00 0.00 94 1013.4
20260510063034 62 0 0.0 0.9 0.00 0.00 0.00 93 1013.4
20260510061527 63 0 0.0 1.7 0.00 0.00 0.00 95 1013.4
20260510060037 62 0 0.0 0.9 0.00 0.00 0.00 95 1013.4
20260510054529 62 0 0.0 0.0 0.00 0.00 0.00 94 1013.5
20260510053100 62 0 0.0 0.9 0.00 0.00 0.00 96 1013.5
20260510051530 62 0 0.0 1.7 0.00 0.00 0.00 96 1013.6
20260510050034 61 0 0.0 0.0 0.00 0.00 0.00 96 1013.7
20260510044528 61 0 0.0 0.0 0.00 0.00 0.00 95 1013.9
20260510043030 62 0 0.0 0.0 0.00 0.00 0.00 95 1013.9
20260510041528 62 0 0.0 0.0 0.00 0.00 0.00 95 1014.1
20260510040029 62 0 0.0 0.0 0.00 0.00 0.00 95 1014.1
20260510034528 62 0 0.0 0.0 0.00 0.00 0.00 95 1014.2
20260510033042 62 0 0.0 0.0 0.00 0.00 0.00 95 1014.0
20260510031532 62 0 0.0 0.0 0.00 0.00 0.00 94 1014.1
20260510030028 62 0 0.0 0.0 0.00 0.00 0.00 94 1014.2
20260510024528 63 0 0.0 0.0 0.00 0.00 0.00 94 1014.1
20260510023030 63 0 0.0 0.0 0.00 0.00 0.00 94 1014.0
20260510021611 63 0 0.0 0.0 0.00 0.00 0.00 93 1013.7
20260510020031 63 0 0.0 0.0 0.00 0.00 0.00 93 1013.7
20260510014542 64 0 0.0 0.0 0.00 0.00 0.00 92 1013.6
20260510013031 64 0 0.0 0.0 0.00 0.00 0.00 92 1013.5
20260510011530 64 0 0.0 0.0 0.00 0.00 0.00 91 1013.4
20260510010039 65 0 0.0 0.0 0.00 0.00 0.00 90 1013.1
20260510004528 65 0 0.0 0.0 0.00 0.00 0.00 89 1012.9
20260510003030 66 0 0.0 0.0 0.00 0.00 0.00 89 1012.6
20260510001527 66 0 0.0 0.0 0.00 0.00 0.00 88 1012.7
20260510000028 67 0 0.0 0.0 0.00 0.00 0.00 88 1012.5
20260509234529 67 0 0.0 0.0 0.00 0.00 0.00 86 1012.5
20260509233034 68 0 0.0 0.0 0.00 0.00 0.00 86 1012.2
20260509231528 68 0 0.0 0.0 0.00 0.00 0.00 84 1012.1
20260509230038 69 0 0.0 0.0 0.00 0.00 0.00 82 1012.1
20260509224527 69 0 0.0 0.9 0.00 0.00 0.00 81 1011.9
20260509223028 69 0 0.0 0.9 0.00 0.00 0.00 80 1011.8
20260509221530 70 0 0.0 1.7 0.00 0.00 0.00 78 1011.8
20260509220029 70 199 0.0 1.7 0.00 0.00 0.00 76 1011.8
20260509214529 70 215 0.9 2.6 0.00 0.00 0.00 77 1011.9
20260509213034 70 0 0.0 2.6 0.00 0.00 0.00 76 1011.8
20260509211528 70 196 0.0 2.6 0.00 0.00 0.00 75 1011.6
20260509210033 70 173 0.9 3.5 0.00 0.00 0.00 74 1011.7
20260509204527 70 194 0.9 2.6 0.00 0.00 0.00 75 1011.6
20260509203028 70 180 0.9 2.6 0.00 0.00 0.00 73 1011.5
20260509201528 70 56 0.0 2.6 0.00 0.00 0.00 74 1011.5
20260509200030 70 214 0.0 1.7 0.00 0.00 0.00 74 1011.5
20260509194540 70 0 0.0 3.5 0.00 0.00 0.00 74 1011.6
20260509193033 70 91 0.9 3.5 0.00 0.00 0.00 72 1012.0
20260509191527 70 0 0.0 4.3 0.00 0.00 0.00 72 1012.0
20260509190028 70 80 0.0 4.3 0.00 0.00 0.00 74 1012.0
20260509184528 69 181 1.7 4.3 0.00 0.00 0.00 76 1012.2
20260509183028 69 0 1.7 4.3 0.00 0.00 0.00 76 1012.3
20260509181529 69 200 1.7 6.1 0.00 0.00 0.00 78 1012.5
20260509180030 68 192 1.7 7.8 0.00 0.00 0.00 79 1013.0
20260509174528 68 0 0.9 5.2 0.00 0.00 0.00 80 1012.7
20260509173032 67 193 0.9 4.3 0.00 0.00 0.00 82 1012.7
20260509171536 67 190 1.7 7.8 0.00 0.00 0.00 84 1012.7
20260509170028 67 182 0.0 4.3 0.00 0.00 0.00 85 1012.7
20260509164528 67 235 0.0 5.2 0.00 0.00 0.00 85 1012.5
20260509163034 67 0 0.9 7.8 0.00 0.00 0.00 85 1012.5
20260509161528 67 194 0.9 3.5 0.00 0.00 0.00 86 1012.9
20260509160031 67 197 0.9 5.2 0.00 0.00 0.00 86 1012.5
20260509154529 67 178 0.0 3.5 0.00 0.00 0.00 87 1012.3
20260509153046 66 136 0.9 5.2 0.00 0.00 0.00 88 1012.2
20260509151528 65 201 1.7 7.0 0.00 0.00 0.00 90 1012.5
20260509150030 64 207 0.9 3.5 0.00 0.00 0.00 91 1012.7
20260509144532 63 205 0.9 3.5 0.00 0.00 0.00 92 1012.8
20260509143028 63 0 0.9 5.2 0.00 0.00 0.00 92 1012.8